Change the Weather History Date:

Monday, January 27, 2014

  Actual Average Record
Temperature  
Mean Temperature 50 °F -  
Max Temperature 55 °F 30 °F 55 °F (2014)
Min Temperature 43 °F 19 °F -17 °F (1947)
Degree Days  
Heating Degree Days 15    
Moisture  
Dew Point 32 °F    
Average Humidity 52    
Maximum Humidity 66    
Minimum Humidity 32    
Precipitation  
Precipitation 0.05 in - - ()
Sea Level Pressure  
Sea Level Pressure 29.66 in    
Wind  
Wind Speed 14 mph (East)    
Max Wind Speed 31 mph    
Max Gust Speed 38 mph    
Visibility 10 miles    
Events Rain    
Averages and records for this station are not official NWS values.
T = Trace of Precipitation, MM = Missing Value Source: NWS Daily Summary

Daily Weather History Graph

Daily Weather History Graph

Search for Another Location

Airport or City:

Trip Planner

Search our weather history database for the weather conditions in past years. The results will help you decide how hot, cold, wet, or windy it might be!

Date:

Astronomy

Jan. 27, 2014 Rise Set
Actual Time 9:28 AM AKST 5:10 PM AKST
Civil Twilight 8:40 AM AKST 5:58 PM AKST
Nautical Twilight 7:49 AM AKST 6:49 PM AKST
Astronomical Twilight 7:00 AM AKST 7:37 PM AKST
Moon 6:33 AM AKST (1/27) 1:52 PM AKST (1/27)
Length of Visible Light 9h 17m
Length of Day
7h 41m
Waning Crescent, 13% of the Moon is Illuminated
Jan 27
Waning Crescent
Jan 30
New
Feb 6
First Quarter
Feb 14
Full
Feb 22
Last Quarter

Hourly Weather History & Observations

Time (AKST) Temp. Windchill Dew Point Humidity Pressure Visibility Wind Dir Wind Speed Gust Speed Precip Events Conditions
12:53 AM 52.0 °F - 35.1 °F 53% 29.68 in 10.0 mi ENE 17.3 mph - N/A   Clear
1:53 AM 52.0 °F - 32.0 °F 47% 29.67 in 10.0 mi NE 10.4 mph - N/A   Clear
3:53 AM 51.1 °F - 28.9 °F 43% 29.62 in 10.0 mi NE 4.6 mph - N/A   Clear
4:53 AM 54.0 °F - 26.1 °F 34% 29.60 in 10.0 mi East 18.4 mph 23.0 mph N/A   Clear
5:53 AM 55.0 °F - 27.0 °F 34% 29.57 in 10.0 mi East 18.4 mph 21.9 mph N/A   Scattered Clouds
6:53 AM 55.9 °F - 26.1 °F 32% 29.55 in 10.0 mi East 20.7 mph - N/A   Scattered Clouds
7:53 AM 55.9 °F - 26.1 °F 32% 29.53 in 8.0 mi East 25.3 mph 34.5 mph N/A   Scattered Clouds
8:53 AM 55.0 °F - 27.0 °F 34% 29.54 in 10.0 mi ENE 15.0 mph 26.5 mph N/A   Scattered Clouds
9:53 AM 55.9 °F - 28.0 °F 34% 29.48 in 10.0 mi NE 19.6 mph 32.2 mph N/A   Mostly Cloudy
10:53 AM 51.1 °F - 37.0 °F 59% 29.51 in 10.0 mi ESE 21.9 mph 34.5 mph 0.00 in Rain Light Rain
11:53 AM 48.9 °F - 37.0 °F 64% 29.57 in 7.0 mi East 31.1 mph 38.0 mph 0.04 in Rain Rain
12:53 PM 50.0 °F - 37.9 °F 63% 29.59 in 10.0 mi ENE 19.6 mph 32.2 mph 0.01 in   Mostly Cloudy
1:53 PM 48.9 °F - 37.9 °F 66% 29.65 in 10.0 mi East 8.1 mph - N/A   Overcast
2:53 PM 48.0 °F - 37.0 °F 66% 29.68 in 10.0 mi East 10.4 mph - N/A   Mostly Cloudy
3:53 PM 48.9 °F - 35.1 °F 59% 29.67 in 10.0 mi ESE 11.5 mph 18.4 mph N/A   Clear
4:53 PM 46.9 °F - 35.1 °F 63% 29.71 in 10.0 mi SSE 10.4 mph 18.4 mph N/A   Scattered Clouds
5:53 PM 46.9 °F - 34.0 °F 61% 29.72 in 10.0 mi SSE 15.0 mph 26.5 mph N/A   Overcast
6:53 PM 46.0 °F 42.5 °F 34.0 °F 63% 29.76 in 10.0 mi ENE 6.9 mph - N/A   Mostly Cloudy
7:53 PM 46.9 °F - 33.1 °F 59% 29.78 in 10.0 mi ESE 6.9 mph - N/A   Mostly Cloudy
8:53 PM 46.0 °F 44.8 °F 32.0 °F 58% 29.79 in 10.0 mi East 3.5 mph - N/A   Overcast
9:53 PM 45.0 °F 42.6 °F 32.0 °F 60% 29.81 in 10.0 mi ENE 4.6 mph - N/A   Overcast
10:53 PM 46.9 °F - 30.9 °F 54% 29.83 in 10.0 mi East 5.8 mph - N/A   Partly Cloudy
11:53 PM 43.0 °F - 30.9 °F 62% 29.83 in 10.0 mi Calm Calm - N/A   Mostly Cloudy